Regional Weather Roundup
Issued by NWS

Home | Current Version | Previous Version | Graphics & Text | Print | Product List | Glossary On
Versions: 1 2 3 4 5 6 7 8 9 10 11 12 13 14 15 16 17 18 19 20 21 22 23 24 25 26 27 28 29 30 31 32 33 34 35 36 37 38 39 40 41 42 43 44 45 46 47 48 49 50
000
ASUS45 KTFX 232310
RWRMT
MONTANA REGIONAL WEATHER ROUNDUP
NATIONAL WEATHER SERVICE GREAT FALLS MT
500 PM MDT THU MAR 23 2017

NOTE: "FAIR" INDICATES FEW OR NO CLOUDS BELOW 12000 FEET WITH NO
SIGNIFICANT WEATHER AND/OR OBSTRUCTIONS TO VISIBILITY.

MTZ001>007-043-240000-
WEST OF THE DIVIDE

CITY           SKY/WX    TMP DP  RH WIND       PRES   REMARKS
KALISPELL      MOSUNNY   48  24  39 W10       29.98S
MISSOULA       MOSUNNY   50  23  34 NW7       29.99R
BUTTE          SUNNY     48  18  30 NW10      29.91R
MULLAN PASS    CLOUDY    28  24  85 CALM      29.98S
ANACONDA         N/A     48  19  32 N6        29.92R
DEER LODGE       N/A     48  19  32 NW16G25   29.95R
EUREKA           N/A     48  21  34 SW10      29.99S
HAMILTON         N/A     54  21  28 S8        29.96S
PLAINS           N/A     50  26  39 W8        30.03R
RONAN            N/A     50  25  38 SW9       30.05S
$$

MTZ008-052>055-240000-
SOUTHWEST MONTANA

CITY           SKY/WX    TMP DP  RH WIND       PRES   REMARKS
BOZEMAN        SUNNY     54  25  32 N8        29.90R
DILLON         PTSUNNY   53  22  29 NE9       29.88R
W YELLOWSTONE  CLOUDY    45  18  33 CALM      29.88R
ENNIS          SUNNY     50  23  34 N8        29.94R
THREE FORKS      N/A     53  53 100 CALM      29.90R
$$

MTZ009-010-012-014-046-048-049-054-240000-
EAST SLOPES AND CENTRAL MONTANA

CITY           SKY/WX    TMP DP  RH WIND       PRES   REMARKS
CUT BANK       SUNNY     50  22  33 W22G30    29.87R
GREAT FALLS    SUNNY     56  16  20 W16       29.86R
MALMSTROM AFB  SUNNY     55  17  22 W14G22    29.87R
HELENA         SUNNY     53  21  28 W16       29.91R
AUGUSTA          N/A     48  18  30 W18       29.88R
BOWMANS CRNR     N/A     50  19  29 W10       29.87R
CHOTEAU          N/A     52  18  25 W16       29.89S
CONRAD           N/A     53  23  31 W20       29.90R
FAIRFIELD        N/A     52  17  24 W10G24    29.87R
POWER            N/A     53  16  23 W12       29.86R
RAYNESFORD       N/A     53  20  27 W15G23    29.87R
$$

MTZ011-013-016-021-045-047-050-051-240000-
NORTH CENTRAL MONTANA

CITY           SKY/WX    TMP DP  RH WIND       PRES   REMARKS
HAVRE          PTSUNNY   60  24  25 NW10      29.81S
LEWISTOWN      SUNNY     54  21  27 N13G18    29.85R
N BAR RANCH      N/A     54  23  30 NW13G24   29.87R
CHINOOK          N/A     61  23  23 W12G18    29.81S
DENTON           N/A     55  19  24 NW20G28   29.81R
FORT BENTON      N/A     59  19  21 MISG      29.85R
GEYSER           N/A     53  18  24 W24G30    29.85R
GRASS RANGE      N/A     54  23  30 NW7       29.81R
STANFORD         N/A     52  20  28 NW23G30   29.85R
WINIFRED         N/A     55  19  25 NW16      29.84R
$$

MTZ017>020-022>027-061-062-240000-
NORTHEAST MONTANA

CITY           SKY/WX    TMP DP  RH WIND       PRES   REMARKS
GLASGOW        SUNNY     59  29  31 MISG      29.79R
JORDAN           N/A     61  28  28 NW20G28   29.80R
SIDNEY         SUNNY     58  41  53 NE12      29.75S
WOLF POINT     MOSUNNY   66  30  26 NW15      29.75R
MALTA          MOSUNNY   59  28  31 NW10G18   29.81R
PLENTYWOOD       N/A     55  39  54 N10       29.78R
POPLAR           N/A     61  37  41 CALM      29.76S
$$

MTZ028>42-056>058-240000-
SOUTHCENTRAL AND SOUTHEAST MONTANA

CITY           SKY/WX    TMP DP  RH WIND       PRES   REMARKS
BAKER          CLOUDY    51  35  54 S5        29.79R
BILLINGS       CLOUDY    54  35  48 SE8       29.84R
LIVINGSTON     PTSUNNY   54  26  34 NW10      29.86R
MILES CITY     CLOUDY    58  31  35 W6        29.79R
BIG TIMBER     MOSUNNY   54  25  32 W23G31    29.86R
EKALAKA          N/A     47  37  68 CALM      29.81R
FORSYTH          N/A     55  39  54 S7        29.80R
HARLOWTON        N/A     53  23  31 N15       29.84R
LAUREL           N/A     55  34  45 E5        29.85R
ROUNDUP          N/A     56  28  34 NE10      29.77R
$$

REGIONAL REPORTS...DAKOTAS

CITY           SKY/WX    TMP DP  RH WIND       PRES   REMARKS
WILLISTON      SUNNY     56  36  47 E7        29.77R
MINOT          CLOUDY    43  34  70 NW10      29.78R
DICKINSON      CLOUDY    51  33  50 CALM      29.74R
BEACH            N/A    N/A N/A N/A MISG        N/A
TIOGA            N/A     50  41  71 NE8       29.78S
BISMARCK       LGT RAIN  42  38  85 CALM      29.77R
GRAND FORKS    CLOUDY    38  36  92 CALM      29.80R
FARGO          LGT RAIN  37  36  96 SE9       29.81R FOG     WCI  30
BUFFALO SD       N/A     44  41  89 NE8       29.74R
RAPID CITY     LGT RAIN  47  42  83 NW25G33   29.73R
$$

REGIONAL REPORTS...WYOMING/IDAHO/WASHINGTON

CITY           SKY/WX    TMP DP  RH WIND       PRES   REMARKS
GILLETTE       LGT RAIN  40  32  73 N14       29.84R
SHERIDAN       LGT RAIN  44  39  82 W10       29.89R
BUFFALO WY     LGT RAIN  40  36  86 N14G23    29.87R
CODY           CLOUDY    46  32  58 SW7       29.90R
YELLOWSTONE LA   N/A     41  21  44 VRB7      29.90R
IDAHO FALLS    PTSUNNY   55  26  32 NW13G18   29.88R
SALMON         SUNNY     54  19  26 N8        29.90S
BOISE          SUNNY     55  22  27 NW13      30.01S
SPOKANE        PTSUNNY   46  27  47 SW8       30.04S
$$

REGIONAL REPORTS...ALBERTA

CITY           SKY/WX    TMP DP  RH WIND       PRES   REMARKS
EDMONTON       SUNNY     37  25  60 NW3       29.86R
CALGARY        PTSUNNY   43  27  52 N9        29.84R
LETHBRIDGE     MOSUNNY   55  19  24 W21G31    29.82R
MEDICINE HAT   MOSUNNY   57  25  28 W8        29.78R
WATERTON GATE    N/A     45  16  31 SW16G32     N/A
CARDSTON         N/A     46  16  29 W17G23      N/A
MILK RIVER       N/A     55  19  24 NW17        N/A
ONEFOUR          N/A     55  21  26 W15G24      N/A
$$

REGIONAL REPORTS...SASKATCHEWAN

CITY           SKY/WX    TMP DP  RH WIND       PRES   REMARKS
SWIFT CURRENT  SUNNY     52  34  50 NW12      29.78R
REGINA         MOSUNNY   46  28  49 N9        29.81R
SASKATOON      MOSUNNY   39  27  60 NE8       29.87R
VAL MARIE        N/A     57  27  30 W16         N/A
ROCKGLEN         N/A     54  30  40 NW9         N/A
$$



USA.gov is the U.S. government's official web portal to all federal, state and local government web resources and services.